Weather History for Hill City, KS

Change the Weather History Date:

Friday, June 21, 2013

  Actual Average Record
Temperature  
Mean Temperature 86 °F 75 °F  
Max Temperature 101 °F 88 °F 106 °F (1988)
Min Temperature 71 °F 61 °F 47 °F (1972)
Cooling Degree Days 20    
Growing Degree Days 36 (Base 50)    
Moisture  
Dew Point 60 °F    
Average Humidity 44    
Maximum Humidity 81    
Minimum Humidity 21    
Precipitation  
Precipitation T in 0.10 in 0.45 in (2005)
Month to date precipitation 2.68 2.01  
Year to date precipitation 7.02 10.51  
Sea Level Pressure  
Sea Level Pressure 29.74 in    
Wind  
Wind Speed 14 mph (South)    
Max Wind Speed 26 mph    
Max Gust Speed 39 mph    
Visibility 10 miles    
Events Rain , Thunderstorm    
T = Trace of Precipitation, MM = Missing Value Source: NWS Daily Summary

Daily Weather History Graph

Daily Weather History Graph

Search for Another Location

Airport:

Trip Planner

Search our weather history database for the weather conditions in past years. The results will help you decide how hot, cold, wet, or windy it might be!

Date:

Astronomy

Jun. 21, 2013 Rise Set
Actual Time 6:12 AM CDT 9:09 PM CDT
Civil Twilight 5:40 AM CDT 9:42 PM CDT
Nautical Twilight 4:59 AM CDT 10:23 PM CDT
Astronomical Twilight 4:11 AM CDT 11:10 PM CDT
Moon 7:22 PM CDT (6/21) 4:29 AM CDT (6/21)
Length of Visible Light 16h 01m
Length of Day
14h 56m
Waxing Gibbous, 95% of the Moon is Illuminated
Jun 21
Waxing Gibbous
Jun 23
Full
Jun 29
Last Quarter
Jul 8
New
Jul 15
First Quarter

Hourly Weather History & Observations

Time (CDT) Temp. Heat Index Dew Point Humidity Pressure Visibility Wind Dir Wind Speed Gust Speed Precip Events Conditions
12:41 AM 84.2 °F 85.0 °F 62.6 °F 48% 29.86 in 10.0 mi SW 12.7 mph - N/A Thunderstorm Clear
12:53 AM 84.9 °F 85.4 °F 62.1 °F 46% 29.76 in 10.0 mi WSW 16.1 mph 25.3 mph N/A Thunderstorm Partly Cloudy
1:04 AM 82.4 °F 83.9 °F 64.4 °F 54% 29.86 in 10.0 mi SSW 9.2 mph 19.6 mph 0.00 in Rain Light Rain
1:18 AM 84.2 °F 85.0 °F 62.6 °F 48% 29.87 in 10.0 mi SW 10.4 mph 23.0 mph 0.00 in Thunderstorm Partly Cloudy
1:53 AM 82.9 °F 83.7 °F 62.1 °F 49% 29.77 in 10.0 mi Calm Calm - 0.00 in Thunderstorm Thunderstorm
2:53 AM 80.1 °F 81.2 °F 62.1 °F 54% 29.75 in 10.0 mi SSE 5.8 mph - N/A Thunderstorm Clear
3:01 AM 78.8 °F - 62.6 °F 57% 29.84 in 10.0 mi SE 6.9 mph - N/A   Clear
3:53 AM 77.0 °F - 64.0 °F 64% 29.76 in 10.0 mi ESE 10.4 mph - N/A   Clear
4:53 AM 73.9 °F - 64.9 °F 73% 29.76 in 10.0 mi ESE 10.4 mph - N/A   Clear
5:53 AM 71.1 °F - 64.9 °F 81% 29.76 in 10.0 mi SE 8.1 mph - N/A   Clear
6:53 AM 72.0 °F - 60.1 °F 66% 29.76 in 10.0 mi South 9.2 mph 17.3 mph N/A   Clear
7:53 AM 77.0 °F - 55.0 °F 47% 29.74 in 10.0 mi SSW 18.4 mph 24.2 mph N/A   Clear
8:53 AM 82.0 °F 81.6 °F 55.9 °F 41% 29.72 in 10.0 mi SW 10.4 mph - N/A   Clear
9:53 AM 88.0 °F 86.7 °F 57.0 °F 35% 29.72 in 10.0 mi South 12.7 mph - N/A   Clear
10:53 AM 88.0 °F 86.1 °F 55.0 °F 32% 29.72 in 10.0 mi South 24.2 mph 31.1 mph N/A   Clear
11:53 AM 88.0 °F 86.5 °F 55.9 °F 34% 29.73 in 10.0 mi SSW 23.0 mph 34.5 mph N/A   Clear
12:53 PM 91.9 °F 90.6 °F 57.0 °F 31% 29.72 in 10.0 mi SSW 24.2 mph 34.5 mph N/A   Clear
1:53 PM 93.9 °F 92.9 °F 57.9 °F 30% 29.71 in 10.0 mi SSW 21.9 mph 33.4 mph N/A   Clear
2:53 PM 98.1 °F 96.8 °F 57.0 °F 25% 29.69 in 10.0 mi South 19.6 mph 35.7 mph N/A   Clear
3:53 PM 100.0 °F 97.9 °F 53.1 °F 21% 29.67 in 10.0 mi South 24.2 mph 36.8 mph N/A   Clear
4:53 PM 96.1 °F 96.4 °F 61.0 °F 31% 29.68 in 10.0 mi South 26.5 mph 35.7 mph N/A   Clear
5:53 PM 97.0 °F 96.9 °F 60.1 °F 29% 29.65 in 10.0 mi South 23.0 mph 34.5 mph N/A   Clear
6:53 PM 95.0 °F 95.2 °F 61.0 °F 32% 29.65 in 10.0 mi South 21.9 mph 38.0 mph N/A   Clear
7:53 PM 91.9 °F 91.2 °F 59.0 °F 33% 29.66 in 10.0 mi South 19.6 mph 39.1 mph N/A   Clear
8:53 PM 89.1 °F 89.0 °F 61.0 °F 39% 29.68 in 10.0 mi South 13.8 mph - N/A   Clear
9:53 PM 87.1 °F 86.7 °F 60.1 °F 40% 29.69 in 10.0 mi South 18.4 mph 27.6 mph N/A   Clear
10:53 PM 84.9 °F 85.4 °F 62.1 °F 46% 29.70 in 10.0 mi South 16.1 mph 25.3 mph N/A   Clear
11:53 PM 82.0 °F 83.4 °F 64.0 °F 54% 29.72 in 10.0 mi South 18.4 mph 26.5 mph N/A   Clear